When you browse on this site, cookies collect data to enhance your experience and personalize the content and advertising you see.
Visit our Privacy Policy to learn more. By continuing to use the site, you agree to this use of cookies and data.
  • en France
  • Liste des pays
  • À 7 jours
  • Température de l'eau
  • Carte satellitaire
  • Carte météo
  • Widgets météo
  • user-avatar
    Se connecter

    Météo par heure à Victoria

    Ce jour, 23 Janvier, Mercredi

    Heure Température Précipitation Vent Pression Humidité
    00:00 +28°C° 0 mm 4 m/s 747 mmHg 45%
    01:00 +27°C° 0 mm 4 m/s 747 mmHg 48%
    02:00 +27°C° 0 mm 4 m/s 747 mmHg 48%
    03:00 +26°C° 0 mm 4 m/s 747 mmHg 49%
    04:00 +25°C° 0 mm 3 m/s 747 mmHg 51%
    05:00 +25°C° 0 mm 4 m/s 747 mmHg 51%
    06:00 +23°C° 0 mm 5 m/s 747 mmHg 52%
    07:00 +23°C° 0 mm 5 m/s 747 mmHg 52%
    08:00 +27°C° 0 mm 5 m/s 747 mmHg 45%
    09:00 +30°C° 0 mm 5 m/s 747 mmHg 39%
    10:00 +34°C° 0 mm 4 m/s 748 mmHg 32%
    11:00 +36°C° 0 mm 4 m/s 747 mmHg 27%
    12:00 +38°C° 0 mm 4 m/s 747 mmHg 22%
    13:00 +41°C° 0 mm 4 m/s 747 mmHg 18%
    14:00 +41°C° 0 mm 5 m/s 746 mmHg 18%
    15:00 +41°C° 0 mm 6 m/s 746 mmHg 19%
    16:00 +40°C° 0 mm 7 m/s 746 mmHg 21%
    17:00 +38°C° 0 mm 7 m/s 746 mmHg 25%
    18:00 +35°C° 0 mm 6 m/s 746 mmHg 30%
    19:00 +33°C° 0 mm 6 m/s 746 mmHg 34%
    20:00 +30°C° 0 mm 6 m/s 747 mmHg 41%
    21:00 +28°C° 0 mm 6 m/s 747 mmHg 48%
    22:00 +25°C° 0 mm 5 m/s 747 mmHg 60%
    23:00 +25°C° 0 mm 5 m/s 747 mmHg 62%

    Demain, 24 Janvier, Jeudi

    Heure Température Précipitation Vent Pression Humidité
    00:00 +23°C° 0 mm 4 m/s 747 mmHg 65%
    01:00 +22°C° 0 mm 4 m/s 747 mmHg 67%
    02:00 +22°C° 0 mm 4 m/s 747 mmHg 68%
    03:00 +22°C° 0 mm 4 m/s 747 mmHg 68%
    04:00 +22°C° 0 mm 3 m/s 747 mmHg 69%
    05:00 +24°C° 0 mm 3 m/s 748 mmHg 65%
    06:00 +25°C° 0 mm 3 m/s 748 mmHg 61%
    07:00 +26°C° 0 mm 4 m/s 748 mmHg 57%
    08:00 +29°C° 0 mm 4 m/s 748 mmHg 50%
    09:00 +33°C° 0 mm 4 m/s 748 mmHg 44%
    10:00 +35°C° 0 mm 4 m/s 747 mmHg 37%
    11:00 +37°C° 0 mm 4 m/s 747 mmHg 32%
    12:00 +40°C° 0 mm 4 m/s 746 mmHg 27%
    13:00 +42°C° 0 mm 4 m/s 746 mmHg 22%
    14:00 +43°C° 0 mm 4 m/s 745 mmHg 21%
    15:00 +44°C° 0 mm 4 m/s 744 mmHg 19%
    16:00 +44°C° 0 mm 3 m/s 744 mmHg 18%
    17:00 +43°C° 0 mm 3 m/s 744 mmHg 20%
    18:00 +42°C° 0 mm 3 m/s 743 mmHg 21%
    19:00 +40°C° 0 mm 3 m/s 743 mmHg 23%
    20:00 +39°C° 0 mm 3 m/s 744 mmHg 24%
    21:00 +37°C° 0 mm 3 m/s 744 mmHg 26%
    22:00 +35°C° 0 mm 4 m/s 744 mmHg 28%
    23:00 +35°C° 0 mm 4 m/s 744 mmHg 28%

    Après-demain, 25 Janvier, Vendredi

    Heure Température Précipitation Vent Pression Humidité
    00:00 +35°C° 0 mm 5 m/s 744 mmHg 27%
    01:00 +35°C° 0 mm 5 m/s 744 mmHg 26%
    02:00 +35°C° 0 mm 6 m/s 744 mmHg 32%
    03:00 +34°C° 0 mm 6 m/s 744 mmHg 37%
    04:00 +34°C° 0 mm 6 m/s 743 mmHg 42%
    05:00 +34°C° 0 mm 7 m/s 744 mmHg 41%
    06:00 +35°C° 0 mm 7 m/s 744 mmHg 39%
    07:00 +35°C° 0 mm 7 m/s 744 mmHg 38%
    08:00 +39°C° 0 mm 7 m/s 744 mmHg 32%
    09:00 +41°C° 0 mm 7 m/s 744 mmHg 27%
    10:00 +45°C° 0 mm 7 m/s 744 mmHg 21%
    11:00 +47°C° 0 mm 7 m/s 744 mmHg 19%
    12:00 +49°C° 0 mm 7 m/s 743 mmHg 16%
    13:00 +50°C° 0 mm 7 m/s 742 mmHg 14%
    14:00 +49°C° 0 mm 6 m/s 742 mmHg 14%
    15:00 +48°C° 0 mm 5 m/s 741 mmHg 14%
    16:00 +47°C° 0 mm 4 m/s 740 mmHg 14%
    17:00 +47°C° 0 mm 4 m/s 741 mmHg 15%
    18:00 +45°C° 0 mm 3 m/s 741 mmHg 15%
    19:00 +44°C° 0 mm 3 m/s 741 mmHg 15%
    20:00 +40°C° 0.1 mm 5 m/s 742 mmHg 27%
    21:00 +35°C° 0.1 mm 6 m/s 743 mmHg 38%
    22:00 +30°C° 0.1 mm 7 m/s 744 mmHg 50%
    23:00 +29°C° 0.1 mm 6 m/s 744 mmHg 55%

    26 Janvier, Samedi

    Heure Température Précipitation Vent Pression Humidité
    00:00 +27°C° 0.1 mm 5 m/s 744 mmHg 60%
    01:00 +26°C° 0.1 mm 3 m/s 744 mmHg 65%
    02:00 +26°C° 0.4 mm 3 m/s 744 mmHg 68%
    03:00 +25°C° 0.4 mm 3 m/s 743 mmHg 71%
    04:00 +25°C° 0.4 mm 3 m/s 743 mmHg 74%
    05:00 +25°C° 0.1 mm 3 m/s 744 mmHg 73%
    06:00 +25°C° 0.1 mm 3 m/s 744 mmHg 72%
    07:00 +26°C° 0.1 mm 3 m/s 744 mmHg 72%
    08:00 +27°C° 0 mm 3 m/s 744 mmHg 64%
    09:00 +29°C° 0 mm 2 m/s 744 mmHg 56%
    10:00 +31°C° 0 mm 2 m/s 744 mmHg 49%
    11:00 +34°C° 0 mm 3 m/s 743 mmHg 41%
    12:00 +36°C° 0 mm 3 m/s 743 mmHg 33%
    13:00 +38°C° 0 mm 4 m/s 743 mmHg 26%
    14:00 +40°C° 0 mm 4 m/s 742 mmHg 23%
    15:00 +41°C° 0 mm 4 m/s 742 mmHg 21%
    16:00 +42°C° 0 mm 5 m/s 741 mmHg 18%
    17:00 +41°C° 0 mm 5 m/s 741 mmHg 19%
    18:00 +40°C° 0 mm 6 m/s 742 mmHg 19%
    19:00 +39°C° 0 mm 6 m/s 742 mmHg 20%
    20:00 +36°C° 0 mm 6 m/s 743 mmHg 23%
    21:00 +34°C° 0 mm 6 m/s 743 mmHg 27%
    22:00 +32°C° 0 mm 6 m/s 744 mmHg 30%
    23:00 +28°C° 0.1 mm 6 m/s 744 mmHg 43%

    27 Janvier, Dimanche

    Heure Température Précipitation Vent Pression Humidité
    00:00 +24°C° 0.1 mm 6 m/s 745 mmHg 56%
    01:00 +21°C° 0.1 mm 5 m/s 745 mmHg 69%
    02:00 +21°C° 0.2 mm 5 m/s 745 mmHg 71%
    03:00 +20°C° 0.2 mm 5 m/s 745 mmHg 73%
    04:00 +20°C° 0.2 mm 5 m/s 745 mmHg 75%
    05:00 +20°C° 0.3 mm 4 m/s 746 mmHg 75%
    06:00 +20°C° 0.3 mm 4 m/s 746 mmHg 75%
    07:00 +19°C° 0.3 mm 4 m/s 746 mmHg 75%
    08:00 +20°C° 0 mm 4 m/s 747 mmHg 70%
    09:00 +22°C° 0 mm 3 m/s 747 mmHg 64%
    10:00 +24°C° 0 mm 3 m/s 747 mmHg 58%
    11:00 +26°C° 0 mm 3 m/s 747 mmHg 48%
    12:00 +27°C° 0 mm 3 m/s 747 mmHg 37%
    13:00 +29°C° 0 mm 3 m/s 747 mmHg 27%
    14:00 +30°C° 0 mm 3 m/s 747 mmHg 25%
    15:00 +31°C° 0 mm 3 m/s 746 mmHg 23%
    16:00 +31°C° 0 mm 3 m/s 746 mmHg 21%
    17:00 +30°C° 0 mm 3 m/s 746 mmHg 25%
    18:00 +29°C° 0 mm 4 m/s 746 mmHg 29%
    19:00 +28°C° 0 mm 4 m/s 746 mmHg 32%
    20:00 +27°C° 0 mm 4 m/s 747 mmHg 35%
    21:00 +25°C° 0 mm 4 m/s 747 mmHg 38%
    22:00 +23°C° 0 mm 4 m/s 748 mmHg 41%
    23:00 +22°C° 0 mm 4 m/s 748 mmHg 46%

    28 Janvier, Lundi

    Heure Température Précipitation Vent Pression Humidité
    00:00 +21°C° 0 mm 4 m/s 748 mmHg 51%
    01:00 +21°C° 0 mm 4 m/s 748 mmHg 55%
    02:00 +20°C° 0 mm 3 m/s 748 mmHg 58%
    03:00 +20°C° 0 mm 3 m/s 748 mmHg 60%
    04:00 +19°C° 0 mm 2 m/s 747 mmHg 63%
    05:00 +20°C° 0 mm 2 m/s 748 mmHg 62%
    06:00 +20°C° 0 mm 2 m/s 748 mmHg 62%
    07:00 +21°C° 0 mm 2 m/s 748 mmHg 62%
    08:00 +24°C° 0 mm 1 m/s 748 mmHg 53%
    09:00 +26°C° 0 mm 1 m/s 748 mmHg 45%
    10:00 +27°C° 0 mm 0 m/s 748 mmHg 36%
    11:00 +30°C° 0 mm 1 m/s 748 mmHg 31%
    12:00 +32°C° 0 mm 2 m/s 748 mmHg 25%
    13:00 +35°C° 0 mm 3 m/s 747 mmHg 19%
    14:00 +36°C° 0 mm 3 m/s 747 mmHg 18%
    15:00 +37°C° 0 mm 3 m/s 746 mmHg 17%
    16:00 +38°C° 0 mm 3 m/s 746 mmHg 16%
    17:00 +37°C° 0 mm 2 m/s 746 mmHg 17%
    18:00 +36°C° 0 mm 2 m/s 746 mmHg 19%
    19:00 +34°C° 0 mm 1 m/s 747 mmHg 20%
    20:00 +32°C° 0 mm 2 m/s 747 mmHg 21%
    21:00 +30°C° 0 mm 2 m/s 748 mmHg 22%
    22:00 +28°C° 0 mm 2 m/s 748 mmHg 24%
    23:00 +27°C° 0 mm 3 m/s 748 mmHg 32%
    Voir plus